Wind_Speed
43 44 45 46 47 48 48 49 50 51 52 53 54 54 54 54 55 55 55 56 56 56 56 56 57 57 57 58 58 59 59 60 61 60 58 58 59 59 59 60 62 62 62 61 60 59 57 55 53 53 52 51 50 50 52 52 53 54 54 54 54 52 47 44 41 39 38 36 34 32 32 32 31 31 31 31 33 35 34 35 37 35 31 32 34 33 33 36
44 45 46 46 47 48 48 49 50 50 51 52 52 53 54 54 54 55 55 55 55 56 56 57 57 57 57 57 58 58 58 58 60 60 60 60 60 59 59 60 60 61 61 62 61 60 59 57 56 55 53 51 49 49 50 50 51 53 53 54 53 50 45 42 41 39 38 36 33 32 31 31 29 29 31 32 36 37 34 34 35 35 33 34 36 35 35 37
45 46 47 48 48 48 49 49 50 50 51 51 52 53 54 54 54 55 55 55 55 55 56 56 57 57 58 57 57 57 57 57 58 60 61 62 60 60 60 59 60 60 60 61 62 61 60 59 59 57 55 52 50 49 50 49 49 50 50 52 50 46 44 42 41 39 37 35 32 31 31 31 30 30 31 34 38 38 33 34 37 37 36 35 37 37 37 39
45 46 47 48 49 49 50 50 50 50 51 51 52 53 54 54 55 55 55 56 56 56 56 56 56 57 58 58 58 57 57 57 57 59 61 62 61 60 60 59 60 60 60 60 61 61 61 61 60 58 57 54 51 50 50 48 48 48 48 47 43 42 43 41 40 38 35 32 30 30 31 32 33 33 35 36 39 40 33 33 38 37 36 37 38 40 40 42
43 44 45 46 46 47 48 49 50 51 51 51 51 52 52 54 55 56 56 56 56 57 57 57 57 57 58 59 59 57 56 57 57 58 59 61 62 61 60 60 59 59 60 59 59 60 61 61 60 59 58 56 54 52 50 48 47 47 45 43 40 39 39 37 37 37 34 30 28 29 32 34 35 37 39 39 40 41 34 32 37 36 34 36 38 41 41 41
42 42 42 42 43 44 45 46 47 49 50 51 52 52 52 53 54 55 56 57 57 57 57 57 57 57 57 59 59 58 57 57 58 59 59 60 61 61 60 60 59 59 59 59 58 59 59 60 60 59 58 57 56 53 50 48 48 47 44 42 39 37 34 33 34 35 34 31 29 30 33 35 37 40 40 40 41 41 34 31 35 35 32 34 38 41 41 38
38 38 37 37 38 39 40 41 43 45 47 49 50 51 52 53 53 54 55 56 57 58 58 58 58 58 58 59 59 59 57 57 58 58 58 58 59 59 60 60 60 59 59 59 58 58 58 58 59 59 58 57 55 53 51 50 49 48 45 42 39 36 33 30 30 32 32 32 32 33 36 37 39 41 40 42 43 41 37 33 32 33 33 33 37 40 40 37
32 32 32 33 34 35 37 38 39 41 43 45 47 49 51 52 54 54 55 56 57 58 59 59 58 58 58 59 60 59 56 56 58 58 57 58 58 58 58 59 60 59 59 58 57 57 57 57 57 57 57 56 55 54 52 52 51 49 46 42 39 36 33 29 28 29 30 32 33 35 39 40 43 43 41 44 45 42 39 33 29 32 34 34 36 38 38 36
29 30 31 32 34 35 37 38 39 41 42 43 45 48 50 51 53 55 56 56 56 57 59 60 60 59 58 59 60 58 55 56 59 59 58 58 58 58 57 57 57 58 58 57 57 57 57 57 56 55 55 55 55 54 53 53 52 50 46 42 40 37 33 30 28 27 29 32 34 37 41 43 46 44 42 44 45 41 36 30 28 31 33 35 35 37 37 34
30 31 33 34 36 37 38 39 40 41 42 43 44 46 48 50 52 54 56 57 58 58 58 60 60 61 59 59 61 58 55 57 59 59 59 58 57 57 57 56 56 56 56 57 56 56 55 55 55 55 54 53 54 54 53 53 50 49 46 43 41 38 35 31 28 28 31 34 37 40 43 46 47 46 44 43 39 33 29 28 29 30 33 37 37 36 36 34
32 34 35 36 36 37 39 40 41 42 43 43 45 46 48 49 51 53 56 58 59 59 60 59 60 61 61 61 60 56 55 58 59 59 58 56 55 54 55 56 55 55 55 55 56 55 53 53 53 55 54 53 53 53 53 52 50 49 48 45 44 41 38 34 30 30 33 35 38 42 45 47 47 45 45 39 30 26 27 29 30 31 33 36 37 34 33 34
34 35 36 36 37 38 39 40 41 43 44 46 48 49 50 50 51 52 54 57 59 60 61 61 60 61 61 62 58 53 56 60 60 60 58 57 54 53 54 54 54 54 53 53 53 53 52 51 53 54 54 53 52 52 52 53 51 50 48 48 46 44 42 37 33 32 34 36 38 43 45 45 43 40 40 34 25 24 27 29 29 31 33 34 34 31 31 33
36 36 36 37 39 40 41 42 44 45 48 50 52 53 53 53 54 54 55 56 58 60 61 62 62 61 61 61 55 52 58 61 60 59 58 57 55 53 53 53 53 52 52 51 51 51 50 50 52 53 53 53 52 52 52 52 52 50 49 49 48 48 45 40 36 35 36 36 38 43 42 38 35 34 35 31 25 25 26 26 28 30 31 32 32 30 29 30
36 37 37 40 42 43 44 45 47 49 52 53 54 55 56 58 59 59 59 59 58 59 61 63 63 64 63 58 53 54 60 61 59 58 56 56 54 52 53 52 51 51 51 50 49 49 49 49 51 52 53 52 51 51 51 51 51 50 51 50 50 51 47 42 39 38 37 37 40 41 37 33 32 31 32 30 26 25 25 26 27 29 30 31 31 29 27 28
37 38 40 43 44 46 47 48 50 52 53 54 56 59 62 65 65 63 62 62 62 60 60 62 64 65 63 57 54 56 60 60 58 57 56 55 53 51 52 52 51 50 50 50 49 49 49 49 51 52 52 52 51 51 51 50 50 51 52 52 51 51 48 43 42 41 39 39 41 39 34 32 30 29 30 30 27 26 26 27 27 29 30 29 29 28 27 27
38 41 43 45 46 47 47 48 50 51 52 54 58 63 67 67 63 59 58 60 62 62 60 61 64 66 63 59 57 57 58 59 59 59 58 56 54 52 52 51 50 51 50 50 50 50 49 50 51 51 51 51 51 52 51 51 51 51 53 53 52 51 49 46 43 43 41 41 41 38 33 31 28 27 29 29 28 27 27 27 28 29 29 28 28 27 27 26
39 42 44 46 46 46 46 47 47 48 50 54 60 62 61 55 48 43 44 48 53 57 60 61 63 65 63 61 60 58 57 59 61 61 58 56 54 53 54 52 51 51 51 51 52 51 50 51 51 51 50 50 50 52 53 53 53 52 53 53 52 51 50 47 44 44 44 43 42 38 34 31 29 28 30 30 28 28 28 28 28 29 28 28 27 27 27 26
40 43 45 45 44 44 44 44 43 45 49 54 57 53 46 40 33 29 30 33 38 45 52 57 61 62 62 62 61 59 57 58 61 61 58 56 54 54 55 53 52 52 52 53 53 52 52 52 52 52 52 52 52 53 54 53 52 53 53 53 53 52 50 48 46 45 44 43 41 38 34 31 30 31 31 30 29 29 29 29 28 29 28 27 27 27 26 25
41 44 44 43 43 43 42 40 41 44 48 51 48 42 37 33 28 25 25 25 26 33 41 48 55 59 60 61 60 58 58 58 60 60 58 55 54 54 56 55 54 54 54 54 54 54 54 54 54 55 54 54 53 54 53 51 51 51 51 51 51 51 50 49 48 45 42 41 40 37 34 32 31 33 32 30 30 29 29 29 28 28 29 28 26 25 24 24
42 44 43 41 42 41 38 37 40 43 45 42 38 35 34 32 28 26 24 22 21 24 31 39 47 54 56 57 57 57 58 59 59 60 58 56 55 54 56 57 57 56 55 54 54 54 55 56 56 55 53 52 52 52 51 50 50 50 50 50 50 51 50 49 48 46 42 40 38 35 34 33 33 32 32 31 30 30 29 28 28 29 29 27 25 24 24 23
43 43 41 40 41 38 35 36 39 41 38 33 32 33 33 32 30 27 24 20 19 20 24 31 39 46 48 50 53 55 57 58 57 58 56 56 56 56 57 58 58 57 55 53 54 55 55 55 54 52 51 50 50 50 50 49 48 49 49 50 50 51 50 48 48 45 42 39 36 34 35 35 33 32 33 33 31 30 29 28 29 29 28 26 25 24 24 23
44 43 40 40 39 35 33 35 38 37 31 29 31 32 32 33 33 30 25 19 18 19 20 25 33 36 39 43 48 52 56 57 56 57 54 54 56 57 57 58 57 56 55 54 55 56 55 53 52 52 51 49 49 50 49 47 48 49 49 50 50 50 49 48 47 44 41 40 36 34 35 35 34 34 34 34 32 30 29 29 30 29 28 26 25 24 23 22
44 42 38 38 37 32 31 33 35 32 27 28 31 32 32 34 35 32 26 18 14 17 17 21 28 28 30 37 43 48 52 54 55 56 55 53 55 57 57 57 56 56 56 55 55 54 54 53 53 53 51 49 49 51 50 47 48 49 49 50 49 49 48 47 46 43 40 40 36 33 34 36 37 37 36 35 33 32 31 31 31 30 28 26 24 23 23 22
43 40 37 37 35 30 29 31 31 28 25 27 29 31 32 34 36 31 24 16 9 13 16 18 24 25 25 33 42 47 50 52 53 53 54 52 53 56 56 55 55 57 56 54 53 52 52 53 53 52 51 50 49 50 50 49 49 49 49 49 48 47 47 45 42 38 37 37 35 34 35 38 40 39 37 36 35 33 33 32 31 29 26 24 24 24 23 23
41 38 36 36 32 28 28 29 28 26 24 26 27 28 29 31 34 30 18 10 7 11 16 15 19 22 24 32 42 47 49 52 52 51 52 52 51 54 55 55 56 56 54 53 52 52 52 52 50 49 50 49 48 49 50 49 49 49 49 48 47 45 44 42 38 35 36 38 37 36 39 41 42 41 39 37 36 35 33 32 30 27 22 21 24 24 23 22
39 37 36 34 30 27 27 27 26 25 24 25 26 27 27 28 30 29 20 11 7 8 10 11 14 21 26 31 37 44 49 51 52 51 51 51 52 53 55 56 55 54 53 53 52 53 52 50 47 48 49 48 49 48 48 49 49 49 48 47 45 44 42 40 38 36 35 37 37 37 39 42 43 43 39 35 35 35 34 31 28 24 21 21 24 23 22 22
38 36 34 32 29 26 26 26 24 23 24 25 27 27 27 25 26 26 22 16 13 12 9 5 10 18 26 30 34 42 47 48 51 52 49 49 52 55 56 55 54 53 54 54 54 54 52 49 48 49 49 49 49 49 48 48 48 47 45 45 43 41 40 37 36 37 36 35 35 35 38 40 42 42 37 32 33 34 33 29 26 23 20 20 22 21 21 21
36 34 32 30 27 25 24 25 23 22 22 24 26 26 25 23 22 22 22 20 17 15 13 7 5 15 27 34 36 40 45 46 49 51 48 47 50 53 55 55 55 54 54 56 55 52 51 49 49 50 50 50 50 49 48 47 46 44 43 42 41 39 36 33 33 35 36 37 38 38 39 40 41 40 37 35 35 33 30 26 23 21 19 19 19 19 20 19
35 33 30 29 27 24 23 23 23 21 21 23 24 24 23 22 20 18 18 20 19 15 13 10 4 13 27 36 38 40 44 44 46 49 48 47 46 49 52 55 56 56 56 57 55 53 52 50 49 49 50 49 49 48 47 46 45 42 41 40 38 35 33 32 33 35 37 40 42 42 42 42 41 40 40 39 34 29 25 21 19 19 20 20 19 18 18 18
35 32 30 29 28 26 24 23 22 22 21 22 23 22 21 21 20 16 14 15 17 16 13 12 7 6 21 32 36 40 43 44 44 47 48 47 46 46 50 54 56 57 57 58 57 56 53 50 49 49 48 47 48 48 47 46 44 42 41 39 35 34 33 34 36 37 39 43 44 44 43 40 39 39 40 38 30 25 23 18 18 19 19 20 18 17 17 18
36 33 31 30 29 28 26 24 23 22 22 22 22 21 20 19 18 15 12 11 14 15 13 12 10 4 9 25 34 38 41 43 45 47 47 48 49 48 49 53 55 56 58 59 58 56 54 52 51 50 49 48 47 47 45 45 43 41 42 40 37 36 35 37 38 39 42 45 45 44 41 36 37 38 36 30 25 24 24 21 21 21 20 19 17 15 16 17
36 34 32 31 31 29 27 27 25 23 23 22 21 21 19 17 15 13 11 10 12 12 10 9 7 7 2 14 28 35 39 43 46 48 47 48 51 51 50 51 52 53 56 57 55 54 53 52 50 50 50 49 48 46 45 45 43 43 44 44 42 40 40 41 42 43 45 46 44 41 36 33 35 35 29 24 23 25 25 24 25 24 21 20 18 16 16 16
36 34 33 31 31 30 29 29 28 24 23 22 21 21 20 16 12 10 9 9 11 10 7 7 6 5 5 6 23 33 38 42 47 49 49 50 52 53 51 50 50 51 52 54 54 54 53 51 52 53 52 50 49 48 48 48 47 46 48 48 47 46 46 45 45 47 48 47 43 37 33 33 35 32 27 26 26 27 26 27 28 27 24 24 23 20 18 17
35 33 32 32 32 32 31 31 29 26 23 21 21 20 19 16 12 8 8 7 8 9 8 8 8 8 6 5 19 32 36 41 47 50 50 52 53 54 54 51 51 51 52 54 55 55 53 52 53 53 52 50 49 48 48 48 47 47 48 50 50 50 48 45 46 49 50 48 43 38 35 35 35 33 29 29 29 27 27 28 29 28 26 25 25 23 20 18
33 31 31 31 31 32 32 31 30 28 25 22 21 20 18 17 13 9 7 5 3 6 9 9 10 10 9 8 17 32 38 41 46 50 51 52 53 54 54 52 51 51 53 55 55 54 53 51 50 50 50 49 47 48 47 46 45 45 49 52 52 50 47 44 46 48 47 46 43 39 39 39 36 35 33 32 30 25 23 25 26 25 23 21 21 20 20 19
32 30 30 30 30 31 31 30 30 30 28 25 23 21 18 16 15 10 7 5 3 6 9 9 9 7 9 10 18 32 39 41 45 50 52 52 51 52 52 51 50 50 51 52 52 52 51 49 47 47 48 48 47 46 47 46 44 46 50 53 52 49 44 41 42 44 42 42 43 42 40 40 38 37 37 34 28 24 22 21 21 20 18 17 17 18 19 18
32 30 30 31 31 31 30 30 30 30 30 29 25 21 16 14 15 11 8 8 8 10 9 6 4 4 8 12 20 32 37 40 44 49 52 53 51 51 52 52 51 49 48 49 50 50 48 46 46 47 47 47 46 43 44 45 43 45 50 51 51 49 44 41 40 41 42 41 43 46 43 40 41 40 39 35 28 24 22 20 17 16 15 16 16 16 16 16
31 30 31 32 33 32 32 31 30 30 30 30 27 22 15 13 13 12 11 11 11 10 7 3 1 5 9 15 24 32 33 35 41 47 50 52 51 50 51 52 51 49 47 47 48 47 45 42 44 46 44 44 43 40 41 43 43 45 47 50 53 50 47 47 42 39 44 43 42 44 42 39 40 40 38 34 29 26 21 17 14 12 14 17 17 16 15 14
31 30 31 32 32 33 33 33 30 29 28 27 27 22 16 11 9 11 12 11 9 7 3 1 5 7 11 20 30 34 32 32 38 44 48 50 50 49 50 51 51 48 45 45 45 44 42 40 40 43 42 39 41 42 42 44 45 46 47 51 56 51 47 49 44 37 41 44 41 39 37 36 36 35 34 31 28 25 17 10 11 14 15 16 16 15 13 12
31 30 30 31 31 32 34 34 30 27 26 25 24 21 16 11 9 11 12 10 5 0 3 4 7 9 15 27 34 34 32 30 33 40 46 49 49 48 49 50 49 45 43 44 42 41 40 38 36 38 39 37 40 45 44 44 47 48 48 53 57 53 47 46 45 40 39 42 42 38 35 36 35 33 32 31 27 23 15 10 12 15 14 13 13 13 11 11
30 30 30 30 31 33 35 33 28 25 24 23 23 21 17 13 11 12 13 10 6 6 5 6 9 11 21 33 33 30 31 29 28 36 44 49 49 48 48 48 48 45 42 42 42 40 39 36 33 33 37 38 39 42 42 43 46 48 48 53 58 55 48 44 43 43 42 40 40 40 37 36 37 34 33 32 28 22 19 17 14 13 12 10 11 12 12 11
30 30 30 30 30 32 33 31 26 24 23 22 22 22 19 15 12 11 12 11 8 6 6 9 12 15 26 34 30 27 29 27 27 32 42 48 49 47 45 46 47 46 44 43 41 40 37 35 34 32 36 39 39 39 41 43 47 48 47 53 57 52 47 46 42 40 42 41 37 37 38 37 37 36 33 30 27 24 23 23 21 18 16 14 14 15 15 13
31 31 30 29 28 30 33 31 27 24 21 20 21 20 20 17 12 10 10 10 10 9 9 12 15 20 29 32 28 25 26 26 26 31 41 49 49 45 44 45 46 46 46 45 42 41 38 36 35 32 33 37 37 39 42 44 47 50 50 51 52 46 44 49 45 36 36 40 38 35 37 37 35 34 34 31 28 26 25 26 26 22 19 19 20 19 17 15
31 31 28 27 26 28 33 32 28 26 22 20 21 18 17 17 15 12 12 11 11 12 14 15 18 24 30 30 25 24 25 26 27 34 44 48 46 44 45 47 47 46 47 46 43 42 39 37 36 34 35 38 40 43 45 45 48 53 54 50 47 43 41 43 42 34 30 35 41 41 41 40 35 31 33 34 31 28 27 26 26 22 18 18 20 21 21 19
28 29 27 26 25 28 33 30 27 28 24 20 20 17 14 15 15 15 14 12 12 14 14 16 20 26 29 26 22 22 25 26 28 38 46 46 45 46 48 48 47 47 48 46 44 42 39 37 36 35 38 42 43 46 47 45 47 52 55 51 46 43 40 35 34 33 29 29 34 39 43 45 42 38 36 36 34 31 30 29 27 23 20 17 17 20 23 24
26 26 25 25 24 26 31 29 26 26 24 18 18 17 13 12 13 14 14 12 12 13 14 18 24 27 26 23 22 24 26 26 30 38 44 46 48 49 50 48 47 49 49 46 45 43 38 37 36 35 36 37 37 42 46 45 46 50 53 52 48 45 41 35 33 34 31 27 25 29 35 38 39 41 40 40 38 34 30 29 27 24 22 20 18 17 20 23
26 26 24 23 23 24 30 32 27 23 23 20 18 18 16 13 12 12 12 13 14 16 18 23 26 26 24 24 26 27 26 27 32 39 43 47 51 52 50 48 48 49 48 45 45 42 37 37 36 33 33 33 34 41 45 44 44 47 52 54 51 47 42 37 37 34 30 29 26 26 28 27 27 31 33 35 36 31 26 24 23 22 21 21 21 19 19 22
26 27 25 23 23 24 30 35 29 22 24 24 19 18 19 17 15 14 16 18 20 21 23 25 25 24 25 26 28 28 28 29 34 40 45 48 54 53 48 46 48 48 47 46 44 41 37 37 37 33 33 37 39 43 44 41 41 44 49 54 51 47 43 39 38 35 30 29 27 25 25 25 23 24 27 30 31 28 23 21 20 21 20 20 22 22 22 21
24 24 23 23 23 24 28 32 29 24 24 26 21 17 17 18 18 17 19 21 22 23 23 22 22 23 24 26 27 27 29 32 36 42 46 51 56 50 41 43 48 48 47 46 42 39 38 39 38 34 35 40 44 45 45 44 43 44 49 53 49 46 46 41 37 36 33 30 28 26 25 25 25 24 24 26 26 25 24 22 20 18 18 18 20 22 23 22
21 20 22 22 21 22 24 27 27 25 22 22 20 17 16 16 16 17 18 19 20 21 20 20 21 22 24 26 26 26 28 33 38 43 47 52 54 44 36 41 47 47 47 44 39 38 37 37 37 34 34 40 46 48 48 46 46 48 51 52 47 44 47 45 40 38 35 32 32 30 28 28 28 27 26 26 25 24 23 21 17 14 14 14 15 18 20 20
22 20 20 20 18 20 22 23 25 26 21 19 19 16 15 15 14 15 16 17 18 19 19 18 18 19 23 26 27 28 30 35 39 42 48 51 47 38 36 39 43 45 46 41 37 37 37 36 36 33 33 39 46 50 50 48 47 49 50 49 44 42 45 47 45 42 38 35 35 36 35 33 31 29 29 28 27 25 23 21 18 16 15 15 14 14 16 18
22 20 19 19 18 19 21 20 23 26 21 17 18 16 14 13 13 14 14 15 18 19 18 17 16 16 22 29 31 31 32 34 35 40 48 47 39 35 36 36 37 41 41 37 36 38 38 36 34 33 33 38 45 50 50 48 46 46 45 44 43 41 42 43 44 45 44 41 39 38 38 36 34 33 33 32 32 30 27 25 23 21 19 18 18 16 17 18
Wind_Direction
279 278 276 275 273 271 270 268 266 265 264 263 262 261 260 258 257 256 254 253 253 253 253 252 251 249 248 247 246 244 242 240 239 239 238 238 238 238 238 238 238 237 237 237 238 239 238 237 238 237 237 236 235 235 236 237 237 238 238 239 241 241 242 244 245 246 247 248 247 248 251 253 252 250 247 242 240 241 240 240 245 249 251 255 259 264 269 271
281 280 278 277 275 273 271 269 268 266 265 264 263 261 260 259 258 257 255 254 252 252 252 252 251 250 248 247 246 244 243 241 240 239 238 237 237 237 237 237 237 237 236 237 237 238 238 237 237 237 236 235 234 234 234 235 235 236 237 239 240 241 242 244 245 246 246 246 246 246 245 246 247 246 245 243 242 240 238 241 247 250 252 255 260 264 266 268
281 280 279 278 277 276 274 272 270 268 266 265 264 262 261 260 258 257 256 255 253 252 251 250 250 250 249 248 246 244 243 241 240 238 238 237 236 236 236 235 236 236 235 235 235 236 237 237 236 236 236 235 233 233 234 233 234 236 236 239 240 241 242 242 243 244 244 245 246 244 242 240 239 239 239 241 245 243 239 242 246 248 252 255 260 263 264 266
282 281 280 279 278 278 277 276 274 272 270 268 266 264 263 261 260 258 256 255 254 253 251 250 249 249 249 248 246 245 243 241 239 238 238 237 235 235 235 234 235 235 235 234 234 235 235 236 236 236 236 235 234 233 234 233 235 235 236 239 241 242 242 240 241 242 242 243 244 242 240 238 235 233 233 236 244 246 239 241 247 247 251 255 259 262 262 264
286 285 283 281 279 278 277 276 276 275 273 272 270 267 265 263 261 260 258 256 255 253 252 250 249 248 247 247 246 245 243 241 239 238 237 237 235 234 234 234 233 234 234 234 234 234 234 235 235 235 235 234 234 233 234 234 235 236 237 239 240 240 241 239 239 239 237 237 237 236 236 235 233 231 231 233 239 245 240 238 247 249 251 256 260 259 257 261
291 288 286 283 281 278 276 274 273 272 272 271 270 269 267 265 262 260 259 257 256 254 252 250 249 247 246 245 244 244 243 241 239 238 237 237 236 234 233 233 233 232 233 233 233 233 233 234 235 235 234 234 234 234 234 235 236 237 237 238 239 239 239 238 237 235 233 231 229 229 232 232 230 230 233 235 236 241 242 238 246 252 253 256 261 260 258 261
292 289 287 285 283 280 278 276 273 271 270 269 268 267 266 265 263 261 259 257 256 255 253 251 249 247 246 245 244 242 242 242 240 238 238 238 237 236 234 233 232 232 232 232 232 232 232 233 234 234 234 234 234 233 233 233 235 236 235 236 237 237 237 236 235 233 229 228 226 225 229 230 229 230 233 237 237 240 244 243 247 254 256 257 262 263 262 262
293 291 289 287 286 284 282 281 278 275 273 270 268 266 265 264 263 261 260 257 255 253 252 251 249 247 245 244 243 242 241 241 240 238 237 236 237 236 235 234 233 231 231 231 231 230 231 232 232 233 233 233 233 233 232 232 233 234 234 234 235 235 234 232 231 229 226 223 222 224 228 229 231 231 230 234 238 240 243 248 250 252 256 259 265 267 266 263
297 295 294 293 292 291 289 287 285 282 279 275 272 269 266 263 262 261 259 258 255 253 250 250 249 247 245 244 243 241 240 239 239 238 236 235 235 235 234 234 234 233 231 230 230 230 229 230 231 231 232 232 232 232 231 231 232 234 233 233 234 233 231 230 226 223 221 218 216 222 226 229 234 236 234 235 239 241 242 246 246 245 251 256 262 267 267 264
301 301 300 299 299 299 297 295 292 289 285 282 278 275 271 266 263 260 258 257 256 254 251 248 247 246 245 244 242 240 240 239 238 238 237 235 233 233 233 232 232 233 233 231 230 229 229 229 229 229 229 230 230 230 230 230 231 232 232 231 232 231 228 226 222 217 217 215 212 217 223 227 234 240 239 240 245 248 244 241 239 238 244 252 257 262 265 266
305 304 303 303 303 303 301 299 296 293 290 287 284 282 278 273 268 263 259 257 255 254 252 249 245 244 243 243 242 241 240 238 237 236 236 234 233 232 232 231 230 230 231 232 231 229 228 228 228 228 227 227 228 228 229 229 229 229 229 228 228 228 225 221 218 215 216 215 213 215 220 225 232 239 242 244 252 250 241 240 240 241 245 252 259 262 266 267
307 305 304 303 303 303 302 300 297 294 292 290 288 286 283 279 275 269 264 259 255 253 251 250 246 243 241 240 241 240 239 237 235 235 234 233 232 230 230 230 230 229 229 230 231 230 228 228 227 227 226 226 226 226 227 227 227 227 227 226 226 226 223 217 213 214 217 216 215 216 220 226 232 238 243 246 247 237 232 238 243 248 252 257 262 263 266 269
308 306 304 304 303 303 302 301 299 297 296 294 292 290 286 281 277 272 268 263 257 253 250 249 247 243 240 238 237 238 238 237 235 234 233 233 231 229 228 228 228 228 227 227 228 229 228 228 227 226 225 225 225 225 226 226 225 225 226 225 224 225 223 215 210 212 216 215 215 218 222 228 232 235 242 243 238 230 230 238 244 251 257 261 264 265 265 268
310 308 307 306 305 305 304 303 302 301 300 298 296 292 289 285 280 274 269 265 260 254 249 247 245 243 240 235 234 236 237 237 235 233 232 232 230 228 227 226 225 225 224 224 224 225 226 227 226 225 224 223 223 224 225 225 225 223 224 225 224 225 223 215 210 210 214 215 217 221 222 226 229 230 237 240 234 232 235 240 245 252 258 262 266 268 268 267
313 311 310 309 308 308 307 306 306 305 304 302 299 297 295 292 287 278 270 264 259 254 249 245 243 241 239 234 232 234 235 234 233 230 229 228 227 226 225 224 222 221 221 221 221 221 222 223 224 224 224 221 220 221 222 223 224 223 224 225 224 225 222 215 211 212 214 215 219 224 222 222 224 223 229 235 234 235 239 243 247 252 257 262 266 268 270 270
316 314 314 313 311 310 309 309 309 309 307 306 303 301 299 296 291 281 270 262 257 253 249 245 241 238 236 233 231 231 231 231 230 228 226 225 224 222 222 222 220 219 218 218 218 217 218 220 221 222 223 221 220 219 219 220 221 222 224 226 225 224 222 216 212 213 214 214 219 224 222 221 222 224 229 233 235 237 241 244 247 252 256 261 265 269 271 274
317 316 316 315 313 311 311 312 312 311 310 308 306 304 304 301 293 284 274 263 255 251 247 243 239 235 233 232 230 228 228 228 228 228 225 223 221 220 220 219 219 218 215 215 215 215 215 217 218 219 220 220 219 219 218 219 220 221 223 225 224 224 222 217 213 214 214 216 220 224 223 222 224 230 234 234 236 240 242 245 248 253 257 261 265 270 273 276
318 318 317 316 314 313 314 315 314 314 313 311 311 311 314 313 303 294 286 273 259 249 244 240 237 232 229 230 229 225 224 225 226 227 224 221 218 218 219 217 215 216 214 213 214 213 214 215 216 217 217 217 217 218 219 220 221 220 222 223 223 223 222 217 214 215 216 218 222 224 225 224 225 231 235 237 238 241 244 247 250 254 258 262 266 271 275 277
319 319 318 317 317 317 318 317 317 318 315 317 320 321 323 325 316 305 299 290 271 252 243 238 233 228 226 228 228 224 222 222 223 223 221 217 215 215 216 215 213 214 213 213 213 213 214 214 214 215 216 217 216 217 219 220 219 219 221 223 224 224 223 218 215 216 217 220 223 225 227 226 228 234 238 240 241 243 246 249 253 256 258 262 266 271 275 277
321 320 319 319 321 321 320 319 321 320 320 327 334 330 328 328 323 315 307 298 284 262 247 238 229 223 222 224 224 221 219 218 220 221 219 214 211 211 213 213 212 212 213 214 213 212 213 214 215 216 217 217 216 215 216 217 217 217 219 221 223 225 225 220 216 215 216 220 223 225 228 227 229 235 239 241 243 244 247 251 255 257 259 263 267 270 273 275
323 323 321 321 323 322 320 321 323 323 326 338 341 335 330 326 322 320 314 305 294 274 253 243 229 218 218 220 219 217 215 215 216 218 218 214 211 210 211 212 212 212 212 212 212 211 212 215 216 216 216 216 215 214 214 215 216 216 217 219 221 224 225 223 219 216 216 219 221 224 228 229 229 232 237 241 243 245 248 251 253 256 259 264 267 269 270 271
327 325 322 322 325 323 321 324 326 326 334 344 341 335 332 327 322 318 312 310 299 281 260 246 234 219 215 216 214 213 212 211 213 214 214 213 212 210 209 211 212 212 211 210 211 211 213 215 215 213 213 213 214 213 212 212 214 216 216 218 219 221 223 223 220 217 217 220 219 223 228 231 232 232 235 238 241 244 247 249 251 254 259 264 267 267 267 268
329 327 324 324 326 323 323 328 329 329 337 344 341 339 336 333 330 321 308 303 297 282 266 245 234 223 214 213 210 208 208 207 209 211 210 209 210 209 208 208 209 209 209 209 211 213 214 214 212 211 210 210 212 212 210 209 212 215 216 218 219 219 220 221 220 216 218 222 220 221 228 233 234 233 234 235 237 240 243 247 251 254 258 263 265 264 264 268
332 330 327 327 328 325 326 331 331 331 337 342 344 343 341 341 341 334 312 299 288 272 267 244 231 222 210 211 208 203 202 202 204 208 208 206 207 208 206 206 207 207 207 208 210 212 214 213 210 209 208 208 210 211 209 207 209 213 216 218 219 219 219 219 219 216 217 222 220 219 225 231 233 233 235 236 236 239 242 246 250 254 258 260 260 260 262 268
336 334 332 331 330 326 327 333 332 330 334 340 345 346 347 352 353 353 343 320 293 272 272 256 231 214 205 210 207 199 198 199 199 202 205 202 203 206 204 203 204 205 206 206 208 209 211 211 209 208 207 207 208 210 210 208 207 211 214 217 217 218 218 216 214 212 213 219 220 219 223 229 232 233 233 235 238 239 242 245 248 252 254 251 253 257 260 264
339 337 336 336 334 327 328 335 333 328 331 334 339 342 347 358 2 5 13 17 359 324 293 264 226 207 205 210 207 199 196 195 195 198 200 199 199 201 201 201 201 203 204 204 206 207 209 208 206 207 207 206 207 208 209 208 207 209 212 215 217 216 217 215 209 205 206 214 219 221 226 231 234 235 233 234 238 240 242 245 248 252 249 245 249 254 257 262
342 341 340 341 339 331 328 334 333 327 328 330 334 340 345 356 5 6 13 21 17 7 347 288 220 205 203 205 206 200 193 192 194 195 196 197 198 198 198 198 197 198 201 202 203 205 206 204 203 206 205 205 206 207 208 208 207 208 210 212 215 215 216 213 208 204 202 207 215 219 226 232 236 239 238 236 238 242 244 246 251 253 245 241 246 249 253 259
345 345 344 345 344 336 329 332 333 328 326 327 332 340 345 351 2 5 6 9 9 4 1 348 231 204 198 200 203 198 190 191 193 192 192 195 198 199 197 195 194 195 198 200 201 203 204 202 202 204 204 204 204 205 207 207 206 206 206 209 211 213 213 205 202 204 200 203 209 214 220 228 233 237 239 237 236 240 246 252 256 250 234 229 235 242 249 257
347 347 346 347 347 342 332 329 331 331 328 325 328 336 342 346 354 5 9 10 10 7 5 2 296 209 200 202 200 194 189 189 192 191 190 192 195 197 197 194 192 192 195 198 198 199 201 200 200 202 204 203 203 203 205 206 205 202 202 206 206 206 204 194 192 195 196 202 208 212 217 223 228 231 235 236 234 241 252 256 253 236 222 225 232 241 249 257
348 348 346 347 350 347 338 328 327 330 330 327 326 328 335 341 345 359 13 13 11 8 11 17 6 218 206 205 201 195 189 185 189 191 189 188 189 192 197 195 192 191 192 194 196 197 197 197 197 200 202 202 202 202 202 204 204 198 197 200 198 196 193 187 187 188 194 204 208 212 217 222 228 231 234 237 240 253 260 253 246 235 229 233 236 241 251 259
350 349 348 348 351 351 345 334 327 325 327 330 330 327 329 333 337 351 8 13 10 8 13 21 24 34 208 209 204 197 187 183 188 189 188 188 185 187 195 196 193 191 191 192 194 195 195 195 194 196 199 200 201 201 199 202 202 196 195 194 190 189 188 187 188 189 198 206 207 211 216 222 230 233 236 241 246 254 256 253 255 253 243 236 234 241 253 262
353 352 351 351 352 353 351 345 337 328 325 329 333 333 330 327 330 345 359 2 6 11 12 8 20 39 27 215 207 197 186 185 188 185 184 187 186 185 191 194 194 193 192 193 193 194 196 196 193 194 198 198 199 198 197 200 199 194 193 191 185 186 188 190 192 194 202 206 204 208 215 224 234 237 236 239 245 251 255 259 262 260 248 233 231 245 256 263
357 356 356 355 355 355 354 352 348 339 331 329 331 333 334 330 325 332 345 348 357 12 12 356 359 11 4 217 204 195 185 185 187 184 183 185 186 186 187 189 191 193 193 193 193 194 195 196 193 193 195 196 196 195 194 198 196 191 192 190 184 184 188 191 193 196 203 205 201 203 214 225 234 237 232 232 242 253 256 259 261 257 249 238 238 249 255 258
1 2 3 3 3 1 359 356 353 347 340 333 329 328 330 331 322 317 334 343 356 8 2 350 337 311 303 232 199 190 182 185 187 184 183 184 186 186 184 185 187 189 192 193 193 193 194 195 195 194 194 195 196 194 195 199 195 188 190 190 184 184 188 191 193 197 202 204 200 200 210 220 226 230 231 235 243 250 251 252 253 252 248 243 244 249 252 253
5 7 7 8 8 6 5 3 357 353 348 341 334 327 325 328 324 313 322 337 359 352 345 340 319 280 256 236 200 184 179 183 186 184 183 184 186 186 184 182 184 187 190 192 192 193 193 195 196 197 196 194 195 194 193 198 195 187 188 189 185 183 188 192 195 199 203 206 203 201 208 215 219 223 230 236 238 238 239 240 243 247 247 242 241 244 246 246
7 9 8 8 7 5 6 8 6 2 358 353 347 339 331 329 329 319 310 321 333 325 329 331 314 265 229 221 196 182 178 181 184 183 182 182 185 186 183 180 182 186 189 190 191 192 193 194 195 197 197 194 194 193 193 196 192 186 189 192 186 183 188 195 199 201 205 209 207 205 208 213 215 221 227 231 229 222 222 228 237 246 242 231 230 235 237 238
7 8 8 7 4 1 3 8 9 8 7 3 358 352 344 336 337 340 331 327 327 322 322 323 309 229 207 197 184 180 178 179 183 183 180 180 182 184 182 180 180 184 186 189 191 191 192 193 194 196 197 195 193 193 195 195 189 187 191 192 186 185 190 196 201 205 207 211 211 210 212 215 216 219 223 225 221 214 215 225 238 241 227 216 220 227 230 231
7 6 5 5 4 3 3 4 5 7 8 5 359 356 353 340 337 343 341 332 327 323 314 300 188 187 190 177 173 174 172 176 181 181 180 179 180 182 182 179 179 180 183 187 190 190 190 192 194 195 195 194 191 190 194 193 187 186 190 189 187 189 192 193 198 205 207 209 211 213 215 218 221 223 224 223 218 214 220 233 240 228 213 213 220 227 231 231
9 6 5 6 7 7 5 4 3 3 5 3 359 358 359 349 332 333 338 331 320 311 291 210 160 176 175 164 162 160 161 173 179 177 178 178 177 180 182 179 177 176 180 184 187 188 188 189 192 194 193 192 190 189 191 190 186 185 187 187 189 192 194 195 198 203 207 208 209 210 211 213 218 223 224 224 222 221 228 235 221 207 206 212 216 222 228 227
11 9 8 8 9 9 5 4 4 1 3 7 7 6 6 4 353 351 355 350 334 197 137 139 158 169 161 156 154 152 159 172 175 175 177 176 176 179 181 179 174 172 177 181 182 183 185 186 189 191 191 189 190 191 191 188 186 186 185 185 189 193 195 198 202 204 206 208 210 210 210 211 215 217 219 220 221 223 218 197 191 198 204 209 209 213 221 220
13 10 8 8 10 11 6 3 4 3 5 12 15 15 14 13 13 14 20 29 57 108 114 131 151 157 156 154 151 153 163 169 170 174 175 174 175 176 178 176 170 168 173 176 178 179 180 180 180 185 190 189 190 193 191 188 187 186 183 183 189 195 196 198 204 208 207 209 212 215 216 218 218 217 218 220 221 216 204 194 193 197 203 214 217 216 217 217
14 11 9 9 11 14 10 5 3 5 11 14 15 18 20 20 24 26 30 44 69 93 109 128 135 140 152 156 152 154 163 164 165 172 174 174 172 171 173 172 166 166 169 171 174 175 175 174 173 180 190 191 189 189 188 187 186 182 180 184 189 195 199 200 205 211 212 212 214 216 220 224 224 222 221 222 222 216 208 209 215 219 225 234 234 225 217 215
16 13 11 11 13 15 12 8 5 8 14 15 14 19 24 27 36 42 45 57 72 94 116 126 129 138 149 152 150 153 158 158 162 168 172 173 169 166 168 166 163 165 167 168 170 171 171 173 172 177 187 190 188 185 183 184 184 180 179 184 187 191 199 202 205 212 216 218 218 216 219 223 225 226 223 222 224 222 220 224 231 237 240 236 233 227 218 218
17 15 14 15 16 15 12 11 10 12 16 17 17 21 28 35 47 56 61 69 81 105 121 120 125 138 144 144 144 148 149 149 157 166 170 169 163 162 163 162 163 166 166 167 169 169 173 177 174 174 183 188 187 182 180 182 182 180 180 184 186 188 194 199 203 210 216 221 224 223 222 222 220 222 223 223 225 227 230 237 242 244 240 234 232 228 225 232
22 20 18 19 18 15 15 15 12 13 19 23 24 27 36 47 59 66 70 78 97 116 121 117 124 135 139 137 138 143 143 142 152 163 166 162 158 159 161 161 164 167 167 169 168 168 174 179 177 177 183 189 188 181 180 184 186 183 182 184 187 191 191 191 197 206 209 213 221 225 228 229 226 225 226 227 230 233 237 242 243 241 237 239 240 234 235 241
26 24 20 20 20 19 19 15 10 15 27 33 34 37 45 57 69 75 76 87 109 118 114 118 127 134 137 138 136 137 139 142 151 159 161 157 155 158 160 162 167 169 170 171 169 169 174 177 178 180 184 190 191 184 183 187 189 187 185 187 191 193 192 189 195 204 204 203 208 217 225 230 231 231 232 233 235 235 236 239 242 243 244 244 243 239 237 236
22 24 23 24 28 28 22 16 11 17 31 39 41 43 46 57 70 77 82 96 113 116 116 125 130 128 130 135 134 133 137 145 151 156 156 154 155 157 160 165 172 172 172 172 172 173 175 176 178 181 183 187 188 183 183 188 189 187 187 190 194 193 190 191 196 200 200 200 203 210 217 221 224 227 229 231 231 230 230 236 243 247 249 246 242 239 235 229
16 20 23 25 30 30 25 23 22 25 34 40 42 44 49 57 67 77 93 107 114 117 120 126 126 121 124 133 135 135 140 145 150 153 153 154 158 160 161 168 174 174 172 173 174 175 175 175 177 180 181 183 183 183 185 188 188 187 189 194 196 194 191 193 196 196 194 196 202 208 213 213 211 214 218 222 227 228 228 233 237 239 242 242 238 233 227 222
16 18 22 25 30 29 26 28 28 26 33 39 41 46 52 60 69 84 102 114 116 116 117 119 121 122 128 135 137 138 141 144 149 152 154 157 162 163 161 167 173 175 173 174 175 175 175 175 179 181 180 182 184 184 186 188 190 191 193 196 196 194 195 196 196 195 193 193 198 204 211 212 207 206 209 213 216 219 220 221 224 228 233 237 235 229 225 221
20 23 24 27 31 29 27 29 24 19 28 41 48 54 60 66 75 88 104 113 115 118 120 121 123 126 129 134 137 136 139 145 149 153 157 161 164 162 158 164 172 175 175 174 173 175 175 174 178 180 180 183 185 184 186 188 190 192 194 195 194 193 196 197 196 196 197 197 201 206 212 214 209 205 207 210 210 213 213 212 212 213 213 216 219 220 221 222
20 25 29 34 34 28 29 29 20 17 30 54 66 73 76 76 80 91 102 110 114 118 120 118 119 124 128 133 136 134 137 147 153 157 162 164 163 160 158 163 169 172 176 176 173 175 176 173 175 178 177 181 184 185 187 190 191 194 196 195 194 193 196 199 201 202 203 204 208 212 216 219 216 212 213 217 219 222 221 216 215 215 212 210 211 212 214 218
15 18 25 35 37 32 32 27 18 19 31 56 77 89 94 88 88 97 104 113 118 115 110 109 110 119 130 133 133 131 136 147 155 162 165 163 161 160 160 162 167 170 176 179 175 173 174 172 174 175 173 177 184 187 190 190 192 196 198 195 194 194 196 200 204 207 209 211 213 216 219 222 223 222 224 227 231 234 236 233 230 228 225 224 224 224 221 220
Height
5724 5723 5721 5720 5719 5718 5717 5716 5716 5715 5715 5714 5714 5714 5714 5714 5715 5715 5716 5716 5717 5718 5718 5719 5720 5722 5724 5726 5729 5732 5736 5739 5741 5744 5749 5751 5751 5754 5759 5761 5764 5768 5771 5775 5777 5780 5784 5788 5791 5793 5796 5800 5803 5807 5809 5811 5813 5814 5815 5815 5815 5819 5824 5829 5835 5838 5840 5844 5847 5849 5850 5850 5851 5852 5852 5853 5852 5851 5853 5855 5854 5855 5857 5856 5855 5856 5857 5857
5718 5717 5715 5714 5712 5711 5710 5709 5709 5708 5707 5707 5706 5706 5706 5707 5707 5707 5708 5709 5710 5710 5711 5712 5713 5715 5717 5719 5722 5725 5729 5732 5734 5738 5740 5742 5745 5749 5752 5755 5757 5761 5765 5769 5772 5774 5778 5782 5785 5787 5791 5794 5799 5802 5803 5805 5807 5808 5811 5811 5812 5817 5824 5829 5832 5834 5837 5839 5843 5845 5846 5847 5848 5848 5849 5849 5848 5848 5852 5853 5852 5853 5853 5853 5852 5853 5854 5854
5712 5710 5708 5707 5705 5704 5703 5702 5701 5700 5700 5699 5699 5698 5698 5698 5699 5699 5700 5701 5702 5703 5704 5704 5706 5707 5709 5712 5715 5718 5722 5725 5728 5730 5732 5735 5739 5742 5745 5748 5751 5754 5759 5762 5765 5769 5772 5776 5778 5781 5785 5789 5794 5796 5798 5801 5802 5804 5806 5806 5810 5817 5821 5826 5827 5830 5834 5836 5839 5841 5842 5843 5844 5845 5845 5845 5844 5845 5850 5851 5850 5850 5850 5851 5850 5851 5852 5850
5705 5704 5702 5700 5699 5697 5696 5694 5693 5692 5692 5691 5691 5691 5690 5690 5690 5691 5691 5692 5693 5695 5696 5697 5699 5700 5702 5705 5708 5712 5715 5717 5720 5722 5725 5728 5732 5735 5739 5742 5745 5748 5752 5756 5759 5763 5766 5769 5773 5777 5780 5784 5789 5791 5793 5797 5799 5801 5802 5804 5811 5815 5817 5822 5824 5827 5831 5833 5835 5837 5838 5839 5839 5841 5840 5842 5840 5841 5847 5848 5847 5848 5849 5850 5849 5848 5848 5846
5699 5697 5695 5694 5692 5690 5689 5687 5686 5685 5684 5683 5682 5682 5682 5682 5682 5682 5683 5684 5685 5686 5687 5689 5691 5693 5695 5697 5700 5704 5707 5709 5713 5715 5717 5720 5724 5729 5732 5735 5739 5742 5745 5750 5754 5757 5760 5764 5767 5771 5775 5780 5783 5786 5790 5794 5795 5797 5800 5804 5809 5811 5814 5818 5821 5823 5827 5830 5831 5832 5833 5833 5835 5835 5835 5838 5838 5837 5844 5846 5844 5846 5847 5847 5845 5844 5843 5843
5691 5689 5688 5686 5685 5683 5682 5680 5679 5678 5677 5675 5674 5674 5674 5674 5674 5674 5675 5676 5677 5677 5679 5681 5682 5685 5687 5690 5693 5697 5699 5702 5706 5708 5711 5715 5718 5723 5726 5729 5733 5736 5739 5744 5748 5752 5755 5758 5762 5766 5770 5775 5778 5782 5788 5790 5792 5794 5798 5802 5805 5808 5811 5815 5817 5819 5823 5825 5827 5828 5828 5828 5830 5831 5832 5835 5834 5835 5841 5843 5841 5842 5844 5843 5841 5839 5839 5842
5684 5683 5681 5679 5678 5676 5675 5673 5672 5671 5670 5668 5668 5667 5666 5666 5665 5666 5666 5667 5668 5669 5670 5672 5674 5677 5679 5682 5686 5689 5693 5696 5698 5701 5706 5709 5712 5717 5721 5724 5727 5730 5733 5737 5742 5746 5749 5753 5757 5761 5765 5770 5774 5779 5784 5786 5787 5790 5795 5799 5802 5805 5808 5811 5813 5816 5819 5821 5824 5824 5823 5824 5825 5827 5831 5831 5831 5834 5838 5839 5839 5839 5839 5839 5838 5836 5836 5838
5679 5677 5676 5674 5672 5671 5669 5668 5666 5665 5663 5662 5661 5659 5659 5658 5657 5657 5657 5658 5659 5660 5662 5663 5666 5669 5671 5675 5677 5683 5688 5688 5689 5695 5700 5703 5706 5711 5714 5718 5721 5724 5728 5731 5736 5740 5744 5748 5752 5756 5760 5765 5770 5774 5779 5781 5783 5786 5791 5795 5798 5802 5805 5808 5810 5812 5815 5817 5820 5821 5820 5820 5819 5824 5828 5827 5828 5832 5835 5837 5838 5836 5835 5835 5835 5834 5834 5835
5674 5672 5670 5669 5667 5665 5663 5662 5660 5659 5657 5655 5654 5652 5652 5651 5650 5649 5649 5650 5650 5651 5653 5654 5657 5660 5664 5667 5670 5677 5681 5678 5683 5689 5692 5696 5700 5703 5707 5712 5716 5719 5723 5727 5730 5734 5738 5742 5747 5751 5755 5761 5765 5769 5774 5776 5779 5783 5788 5792 5795 5798 5802 5804 5807 5809 5811 5813 5816 5816 5817 5816 5816 5820 5824 5823 5825 5829 5833 5835 5835 5834 5833 5832 5832 5832 5832 5833
5669 5667 5665 5663 5661 5659 5657 5655 5653 5651 5650 5648 5647 5645 5644 5643 5642 5641 5641 5641 5641 5642 5643 5645 5649 5651 5656 5659 5663 5672 5672 5671 5679 5683 5685 5690 5694 5697 5701 5705 5710 5715 5719 5722 5725 5729 5734 5738 5742 5746 5750 5755 5759 5764 5768 5771 5776 5780 5785 5789 5791 5794 5798 5801 5804 5806 5807 5808 5811 5811 5813 5813 5813 5817 5819 5820 5824 5827 5831 5832 5831 5830 5830 5829 5829 5829 5830 5831
5665 5662 5660 5658 5656 5653 5651 5649 5647 5645 5643 5641 5639 5638 5636 5635 5634 5633 5633 5632 5632 5633 5633 5636 5640 5643 5648 5651 5658 5665 5662 5664 5671 5673 5678 5684 5688 5692 5695 5699 5704 5708 5713 5717 5721 5725 5730 5733 5736 5739 5744 5749 5754 5759 5763 5767 5772 5775 5779 5784 5786 5790 5793 5797 5800 5802 5803 5804 5806 5807 5809 5809 5810 5813 5814 5819 5823 5825 5827 5827 5827 5827 5827 5826 5826 5828 5828 5829
5660 5658 5655 5653 5651 5648 5646 5643 5641 5639 5637 5634 5632 5630 5628 5626 5625 5624 5623 5623 5623 5623 5624 5627 5630 5635 5638 5644 5655 5656 5651 5656 5662 5666 5673 5678 5682 5686 5689 5693 5698 5702 5707 5712 5717 5721 5725 5728 5730 5734 5740 5744 5749 5754 5758 5762 5766 5770 5774 5778 5782 5785 5788 5793 5796 5798 5798 5801 5803 5804 5805 5806 5808 5810 5812 5817 5821 5822 5823 5824 5824 5824 5824 5824 5824 5826 5826 5827
5656 5653 5650 5648 5645 5642 5640 5637 5635 5632 5630 5627 5624 5621 5619 5617 5615 5613 5613 5613 5613 5613 5616 5617 5621 5626 5629 5640 5650 5644 5641 5649 5655 5662 5668 5671 5676 5679 5682 5687 5692 5697 5701 5706 5712 5716 5720 5722 5726 5730 5735 5739 5744 5749 5753 5757 5761 5766 5770 5773 5777 5779 5783 5789 5792 5793 5794 5797 5800 5800 5802 5805 5808 5809 5810 5814 5818 5820 5821 5822 5822 5821 5822 5822 5822 5824 5825 5825
5651 5648 5645 5642 5639 5636 5633 5630 5627 5624 5621 5617 5614 5611 5608 5605 5603 5601 5600 5601 5602 5603 5606 5608 5612 5615 5620 5635 5640 5632 5634 5642 5649 5658 5662 5665 5670 5673 5677 5681 5686 5691 5695 5701 5705 5709 5714 5717 5721 5725 5729 5734 5740 5744 5749 5753 5758 5762 5765 5768 5771 5773 5779 5786 5788 5789 5791 5794 5795 5796 5801 5804 5806 5807 5808 5811 5815 5817 5819 5819 5820 5819 5819 5819 5820 5821 5822 5823
5646 5643 5639 5636 5632 5629 5625 5622 5619 5615 5612 5607 5603 5599 5596 5591 5588 5587 5587 5587 5589 5592 5596 5599 5602 5605 5614 5628 5629 5623 5627 5634 5641 5649 5652 5657 5662 5667 5671 5675 5679 5684 5689 5694 5698 5703 5708 5711 5716 5720 5725 5730 5734 5739 5744 5748 5753 5757 5759 5762 5766 5769 5775 5782 5785 5786 5788 5790 5792 5794 5799 5802 5804 5806 5807 5809 5812 5815 5817 5817 5818 5818 5817 5817 5818 5819 5819 5820
5642 5638 5634 5630 5626 5623 5619 5616 5612 5608 5603 5599 5594 5588 5582 5577 5573 5571 5571 5573 5575 5580 5585 5588 5591 5597 5608 5617 5617 5615 5619 5625 5631 5637 5643 5650 5656 5660 5663 5669 5674 5679 5683 5688 5692 5697 5701 5706 5711 5716 5721 5725 5729 5734 5738 5743 5747 5752 5755 5758 5762 5765 5771 5778 5781 5784 5786 5787 5788 5792 5797 5800 5802 5805 5806 5808 5811 5813 5814 5815 5815 5815 5815 5815 5816 5816 5817 5818
5638 5634 5630 5626 5621 5618 5614 5610 5606 5602 5597 5592 5586 5578 5570 5564 5560 5558 5557 5559 5562 5567 5571 5575 5579 5588 5599 5605 5605 5605 5610 5617 5623 5629 5638 5644 5649 5653 5657 5664 5669 5672 5677 5681 5685 5691 5696 5701 5706 5711 5715 5720 5725 5729 5732 5737 5742 5746 5750 5753 5758 5762 5768 5774 5779 5781 5783 5784 5786 5790 5794 5798 5800 5802 5804 5806 5808 5810 5811 5812 5812 5812 5813 5814 5814 5814 5815 5816
5634 5630 5626 5621 5617 5613 5609 5605 5601 5596 5592 5586 5578 5570 5563 5558 5554 5552 5550 5550 5552 5554 5557 5562 5568 5580 5590 5592 5592 5597 5605 5612 5617 5623 5631 5637 5642 5646 5652 5658 5661 5665 5670 5674 5680 5686 5690 5696 5701 5705 5710 5715 5719 5723 5727 5733 5738 5742 5745 5749 5754 5759 5764 5771 5775 5778 5780 5783 5785 5788 5792 5796 5798 5798 5800 5803 5805 5807 5808 5809 5809 5810 5811 5812 5812 5812 5813 5814
5630 5625 5621 5617 5612 5608 5604 5600 5596 5592 5586 5579 5571 5564 5559 5555 5552 5549 5547 5546 5545 5546 5548 5551 5559 5571 5579 5580 5583 5590 5599 5605 5609 5615 5623 5629 5635 5640 5646 5650 5654 5659 5663 5669 5675 5680 5685 5690 5694 5699 5704 5710 5715 5719 5725 5731 5735 5739 5743 5747 5752 5756 5761 5767 5772 5775 5779 5781 5784 5787 5790 5793 5795 5796 5798 5800 5802 5804 5805 5806 5806 5807 5808 5809 5810 5811 5811 5812
5625 5621 5616 5612 5608 5603 5599 5595 5591 5587 5581 5574 5568 5562 5557 5553 5550 5547 5545 5543 5542 5541 5541 5544 5550 5560 5567 5570 5575 5582 5590 5596 5602 5608 5615 5622 5627 5633 5639 5643 5647 5653 5659 5666 5671 5675 5680 5684 5690 5698 5704 5709 5713 5717 5722 5727 5732 5736 5741 5745 5749 5753 5758 5764 5769 5773 5777 5779 5782 5786 5788 5790 5792 5794 5796 5797 5799 5801 5802 5803 5803 5804 5805 5807 5808 5809 5810 5811
5621 5616 5612 5607 5603 5598 5595 5591 5587 5582 5577 5571 5566 5560 5555 5551 5548 5545 5543 5541 5538 5537 5538 5539 5542 5550 5557 5560 5566 5573 5581 5590 5597 5603 5610 5617 5621 5626 5632 5637 5643 5649 5656 5662 5666 5670 5675 5681 5690 5698 5702 5706 5710 5714 5718 5724 5729 5733 5737 5741 5745 5749 5755 5761 5766 5771 5775 5777 5781 5783 5784 5786 5789 5791 5792 5793 5796 5797 5798 5799 5800 5801 5802 5805 5806 5807 5808 5809
5616 5612 5607 5603 5599 5594 5591 5587 5583 5578 5574 5569 5564 5559 5554 5549 5545 5542 5540 5539 5536 5534 5535 5535 5537 5544 5548 5552 5559 5566 5575 5585 5592 5597 5605 5611 5616 5621 5627 5632 5640 5648 5653 5655 5659 5665 5672 5682 5689 5691 5696 5702 5706 5710 5715 5721 5726 5730 5733 5737 5741 5746 5751 5757 5763 5769 5772 5774 5778 5780 5781 5783 5786 5787 5788 5790 5792 5793 5794 5795 5796 5799 5801 5803 5804 5805 5806 5807
5612 5608 5603 5599 5595 5591 5587 5584 5580 5575 5571 5567 5562 5557 5552 5547 5541 5537 5535 5536 5534 5531 5531 5532 5534 5539 5544 5548 5553 5560 5571 5581 5586 5592 5598 5605 5612 5617 5621 5629 5637 5642 5645 5650 5657 5664 5671 5679 5681 5685 5692 5698 5702 5706 5711 5717 5722 5726 5730 5734 5738 5743 5747 5752 5759 5766 5769 5771 5775 5778 5779 5779 5780 5782 5784 5786 5788 5789 5790 5792 5795 5797 5799 5801 5802 5803 5804 5805
5609 5604 5600 5596 5592 5588 5584 5581 5577 5573 5569 5565 5560 5555 5551 5546 5540 5534 5530 5531 5532 5529 5528 5529 5532 5537 5543 5544 5546 5555 5566 5574 5581 5588 5594 5601 5607 5612 5618 5626 5632 5636 5642 5649 5656 5662 5668 5672 5676 5683 5689 5693 5698 5702 5707 5713 5718 5723 5727 5731 5736 5741 5745 5750 5757 5764 5768 5769 5772 5774 5775 5774 5774 5777 5780 5782 5784 5786 5788 5791 5793 5795 5798 5799 5800 5801 5802 5803
5605 5601 5597 5593 5588 5585 5582 5578 5575 5571 5567 5563 5559 5555 5551 5546 5541 5534 5529 5528 5530 5528 5527 5528 5531 5536 5539 5538 5543 5553 5561 5569 5577 5583 5589 5595 5602 5608 5615 5619 5625 5633 5641 5648 5653 5658 5662 5668 5675 5682 5686 5690 5695 5699 5704 5710 5715 5720 5724 5728 5734 5739 5744 5749 5755 5761 5764 5764 5766 5770 5769 5768 5770 5773 5775 5777 5780 5783 5786 5788 5790 5793 5796 5797 5797 5799 5800 5801
5603 5598 5594 5590 5586 5582 5579 5576 5572 5569 5566 5562 5558 5555 5550 5546 5542 5536 5532 5530 5529 5528 5526 5527 5530 5533 5534 5538 5544 5551 5557 5566 5573 5578 5584 5591 5597 5603 5608 5613 5622 5631 5639 5644 5649 5652 5657 5665 5674 5678 5683 5689 5692 5697 5702 5707 5712 5717 5722 5727 5732 5737 5742 5747 5751 5754 5758 5761 5764 5767 5766 5766 5767 5767 5771 5775 5777 5779 5782 5785 5788 5791 5794 5795 5795 5797 5798 5799
5601 5596 5591 5587 5583 5580 5576 5574 5571 5567 5564 5561 5558 5554 5550 5545 5542 5539 5536 5533 5531 5529 5527 5527 5528 5530 5533 5537 5541 5546 5555 5564 5568 5574 5582 5588 5593 5597 5602 5610 5620 5627 5633 5637 5641 5647 5655 5663 5669 5674 5679 5684 5689 5695 5700 5704 5710 5715 5721 5726 5731 5736 5741 5746 5748 5750 5755 5758 5761 5764 5764 5764 5764 5765 5770 5773 5774 5776 5778 5782 5786 5789 5791 5792 5793 5794 5795 5796
5598 5594 5589 5585 5581 5577 5574 5571 5569 5566 5563 5560 5557 5554 5550 5546 5543 5540 5538 5535 5532 5530 5528 5527 5528 5529 5530 5531 5535 5544 5554 5560 5565 5572 5579 5584 5590 5595 5601 5608 5615 5621 5627 5631 5638 5647 5653 5659 5665 5670 5674 5679 5686 5693 5697 5702 5708 5714 5721 5725 5729 5735 5740 5744 5746 5749 5753 5754 5755 5758 5759 5760 5760 5763 5766 5768 5770 5772 5775 5780 5784 5787 5789 5790 5791 5792 5793 5794
5596 5592 5588 5583 5579 5576 5572 5569 5566 5564 5561 5558 5556 5553 5550 5547 5544 5541 5538 5536 5534 5531 5529 5528 5527 5528 5527 5529 5534 5541 5547 5554 5561 5567 5572 5578 5586 5594 5601 5605 5609 5614 5619 5627 5636 5642 5648 5655 5662 5667 5672 5679 5686 5690 5695 5700 5706 5713 5719 5723 5728 5733 5738 5741 5743 5746 5749 5749 5749 5752 5754 5756 5756 5758 5760 5762 5767 5770 5774 5780 5783 5785 5787 5787 5788 5789 5791 5793
5594 5590 5586 5582 5578 5574 5571 5567 5565 5562 5559 5557 5554 5552 5549 5547 5544 5541 5538 5536 5534 5532 5530 5528 5527 5527 5528 5531 5534 5538 5543 5551 5556 5561 5567 5574 5582 5591 5597 5601 5604 5608 5615 5623 5630 5636 5644 5652 5658 5664 5672 5679 5683 5687 5692 5697 5703 5712 5717 5722 5727 5731 5735 5738 5740 5743 5744 5742 5745 5748 5750 5753 5754 5754 5756 5761 5768 5771 5774 5778 5780 5782 5784 5784 5786 5787 5789 5791
5593 5589 5586 5582 5577 5573 5569 5565 5563 5560 5558 5556 5553 5550 5548 5546 5544 5541 5538 5536 5534 5533 5531 5530 5528 5528 5530 5532 5534 5538 5544 5548 5551 5558 5566 5572 5577 5584 5590 5596 5601 5606 5613 5620 5627 5635 5641 5646 5654 5663 5670 5675 5679 5685 5690 5694 5700 5709 5715 5719 5724 5729 5732 5734 5737 5739 5738 5738 5743 5746 5747 5750 5751 5751 5756 5762 5768 5770 5772 5776 5778 5780 5781 5782 5784 5785 5787 5788
5592 5588 5585 5581 5577 5573 5569 5564 5561 5559 5556 5554 5552 5549 5547 5545 5543 5541 5539 5537 5535 5533 5532 5531 5530 5530 5531 5532 5534 5538 5543 5545 5549 5556 5564 5570 5576 5580 5586 5594 5602 5608 5615 5621 5629 5636 5640 5646 5655 5661 5665 5670 5675 5681 5686 5690 5696 5705 5710 5714 5719 5725 5728 5730 5733 5734 5734 5736 5741 5744 5746 5748 5747 5751 5758 5763 5766 5769 5771 5774 5776 5777 5779 5780 5781 5783 5785 5786
5592 5588 5584 5580 5576 5573 5569 5564 5560 5558 5555 5553 5551 5548 5546 5544 5542 5540 5538 5537 5535 5533 5532 5531 5531 5531 5531 5532 5533 5537 5541 5544 5549 5555 5561 5568 5574 5578 5585 5594 5603 5610 5617 5623 5629 5634 5640 5647 5651 5653 5658 5665 5671 5676 5681 5685 5691 5699 5705 5709 5713 5718 5721 5725 5729 5731 5731 5735 5739 5743 5744 5745 5745 5750 5757 5761 5765 5768 5770 5772 5772 5774 5776 5777 5779 5781 5783 5784
5591 5587 5584 5580 5576 5573 5568 5564 5560 5557 5554 5552 5549 5547 5544 5542 5541 5540 5538 5537 5535 5534 5533 5532 5532 5532 5532 5532 5532 5536 5540 5544 5548 5554 5560 5565 5571 5576 5582 5590 5599 5607 5614 5620 5625 5630 5637 5642 5646 5650 5657 5663 5669 5676 5681 5685 5690 5696 5702 5706 5710 5714 5718 5723 5727 5728 5730 5733 5737 5740 5740 5741 5744 5749 5754 5759 5764 5766 5768 5768 5769 5770 5772 5774 5777 5779 5781 5782
5591 5587 5583 5580 5576 5572 5568 5564 5560 5557 5554 5551 5548 5545 5543 5541 5540 5539 5537 5536 5535 5534 5534 5533 5532 5531 5531 5531 5532 5535 5539 5543 5548 5553 5558 5564 5571 5577 5583 5591 5599 5605 5610 5616 5623 5630 5636 5642 5649 5655 5659 5664 5670 5676 5679 5683 5689 5696 5701 5704 5707 5713 5719 5723 5726 5728 5730 5732 5735 5737 5737 5739 5743 5748 5752 5756 5760 5763 5764 5765 5766 5768 5770 5773 5775 5777 5779 5780
5591 5587 5583 5580 5576 5572 5568 5564 5560 5557 5554 5551 5547 5544 5542 5540 5539 5538 5537 5536 5535 5534 5532 5531 5530 5530 5530 5531 5532 5535 5538 5542 5547 5551 5557 5564 5572 5579 5586 5593 5599 5605 5611 5618 5624 5631 5637 5643 5650 5655 5659 5663 5668 5673 5676 5680 5687 5694 5698 5701 5707 5713 5718 5722 5724 5726 5729 5731 5733 5735 5736 5737 5741 5746 5748 5752 5757 5760 5761 5763 5765 5766 5768 5771 5773 5774 5776 5777
5590 5587 5584 5580 5576 5572 5568 5565 5561 5557 5554 5551 5547 5544 5542 5540 5538 5537 5536 5535 5534 5532 5531 5530 5530 5530 5530 5530 5532 5536 5539 5542 5546 5552 5558 5564 5572 5580 5586 5592 5598 5604 5612 5620 5625 5632 5639 5644 5649 5653 5658 5663 5667 5673 5676 5679 5686 5692 5696 5703 5709 5712 5714 5717 5721 5724 5726 5728 5731 5733 5734 5736 5739 5743 5745 5749 5754 5757 5759 5762 5763 5765 5766 5769 5771 5772 5773 5775
5591 5588 5584 5580 5576 5572 5568 5565 5561 5557 5554 5551 5548 5544 5542 5539 5537 5536 5535 5534 5533 5531 5531 5530 5530 5530 5530 5530 5533 5537 5541 5544 5548 5554 5560 5566 5573 5581 5587 5591 5597 5605 5613 5619 5625 5631 5638 5643 5647 5652 5658 5662 5665 5670 5673 5678 5684 5690 5696 5703 5707 5708 5711 5713 5716 5719 5722 5725 5728 5730 5733 5735 5737 5740 5743 5747 5752 5754 5758 5760 5762 5763 5765 5767 5769 5770 5771 5773
5591 5588 5584 5581 5576 5572 5568 5565 5561 5557 5554 5551 5547 5544 5541 5539 5537 5536 5534 5532 5531 5531 5531 5530 5531 5531 5531 5532 5534 5539 5544 5548 5551 5556 5562 5569 5576 5583 5588 5593 5598 5606 5612 5619 5625 5631 5636 5640 5645 5650 5656 5660 5662 5665 5669 5675 5682 5688 5693 5700 5704 5707 5710 5712 5714 5717 5720 5723 5725 5727 5729 5732 5735 5738 5742 5747 5750 5754 5757 5759 5760 5762 5763 5765 5767 5768 5769 5771
5592 5589 5585 5581 5577 5573 5569 5565 5560 5557 5554 5550 5547 5544 5541 5539 5538 5536 5534 5532 5531 5531 5531 5531 5531 5531 5533 5535 5537 5541 5547 5551 5554 5559 5564 5571 5576 5582 5589 5594 5600 5607 5613 5619 5625 5630 5634 5639 5644 5649 5653 5656 5659 5663 5668 5675 5681 5685 5689 5696 5702 5705 5708 5711 5714 5715 5718 5721 5724 5725 5727 5730 5733 5737 5742 5746 5749 5753 5757 5758 5759 5760 5762 5763 5765 5766 5768 5770
5593 5589 5586 5582 5578 5573 5569 5565 5561 5557 5554 5551 5548 5546 5543 5540 5538 5537 5535 5533 5532 5532 5532 5532 5532 5533 5535 5537 5540 5544 5549 5553 5556 5560 5565 5571 5576 5583 5591 5596 5600 5606 5613 5620 5624 5628 5633 5638 5643 5646 5649 5653 5659 5666 5671 5676 5680 5684 5688 5694 5698 5702 5706 5709 5711 5713 5716 5719 5722 5724 5726 5729 5732 5736 5740 5744 5748 5751 5755 5757 5758 5759 5761 5762 5764 5765 5767 5769
5594 5590 5586 5583 5579 5574 5571 5567 5563 5559 5556 5553 5550 5548 5545 5542 5540 5538 5537 5535 5535 5535 5534 5534 5535 5536 5538 5540 5544 5548 5552 5555 5558 5562 5567 5572 5577 5584 5593 5598 5601 5606 5612 5619 5624 5629 5634 5638 5641 5645 5650 5656 5661 5666 5670 5675 5679 5683 5688 5692 5696 5701 5704 5707 5709 5712 5715 5718 5720 5723 5725 5727 5730 5734 5739 5742 5745 5748 5752 5754 5756 5758 5760 5761 5763 5764 5766 5768
5594 5590 5587 5584 5580 5577 5573 5570 5565 5561 5558 5555 5552 5550 5547 5544 5542 5541 5540 5538 5538 5537 5537 5537 5538 5539 5541 5544 5548 5551 5555 5558 5561 5565 5570 5575 5580 5587 5594 5599 5602 5606 5612 5619 5624 5629 5634 5637 5640 5646 5652 5657 5660 5664 5669 5673 5677 5682 5686 5690 5694 5699 5702 5705 5709 5712 5714 5716 5718 5720 5723 5724 5727 5732 5736 5740 5742 5745 5748 5751 5753 5756 5758 5760 5761 5763 5765 5766
5595 5592 5589 5585 5582 5579 5575 5571 5567 5563 5560 5557 5555 5552 5550 5547 5545 5544 5542 5541 5541 5541 5541 5541 5542 5544 5546 5548 5552 5554 5557 5560 5563 5566 5571 5577 5583 5588 5594 5599 5604 5609 5614 5619 5624 5629 5633 5637 5641 5644 5649 5653 5656 5661 5666 5670 5674 5679 5684 5689 5693 5697 5700 5703 5707 5710 5713 5714 5716 5718 5720 5722 5726 5729 5733 5736 5739 5742 5745 5748 5751 5754 5756 5758 5759 5761 5762 5763
5597 5594 5591 5587 5584 5581 5577 5573 5569 5565 5562 5559 5557 5554 5552 5550 5548 5547 5546 5545 5544 5544 5545 5545 5546 5548 5550 5553 5555 5558 5560 5563 5565 5568 5573 5578 5583 5589 5594 5599 5605 5611 5615 5619 5624 5629 5634 5638 5641 5644 5646 5648 5652 5657 5663 5668 5674 5679 5684 5688 5693 5696 5698 5702 5706 5709 5710 5712 5714 5716 5718 5720 5724 5727 5730 5733 5736 5739 5742 5745 5747 5750 5753 5755 5757 5759 5760 5761
5599 5596 5593 5590 5586 5583 5580 5576 5571 5567 5564 5562 5560 5557 5555 5553 5552 5551 5550 5549 5548 5548 5548 5549 5551 5552 5554 5556 5559 5561 5563 5565 5568 5572 5576 5580 5584 5590 5596 5601 5606 5612 5615 5619 5623 5629 5634 5638 5641 5645 5648 5652 5656 5660 5664 5668 5673 5679 5683 5687 5691 5694 5697 5700 5704 5707 5709 5711 5712 5714 5716 5719 5722 5725 5728 5731 5733 5736 5739 5742 5745 5747 5750 5752 5754 5756 5757 5758
5600 5597 5594 5591 5588 5585 5582 5578 5573 5569 5567 5565 5563 5560 5558 5556 5555 5554 5553 5553 5552 5552 5552 5553 5555 5555 5557 5560 5562 5565 5567 5568 5571 5575 5579 5582 5586 5591 5598 5603 5608 5612 5615 5619 5624 5628 5633 5638 5641 5645 5650 5655 5660 5663 5665 5667 5672 5676 5681 5684 5688 5692 5695 5698 5702 5705 5708 5709 5710 5711 5714 5717 5720 5723 5726 5728 5731 5734 5737 5740 5743 5745 5747 5749 5750 5752 5754 5755
5600 5598 5595 5592 5589 5586 5584 5580 5575 5572 5570 5568 5565 5563 5562 5560 5558 5557 5557 5556 5555 5555 5556 5557 5558 5559 5561 5563 5566 5568 5569 5571 5575 5578 5582 5585 5588 5592 5598 5604 5608 5612 5616 5620 5624 5628 5632 5637 5641 5645 5649 5653 5657 5660 5663 5667 5671 5675 5679 5682 5686 5690 5694 5697 5700 5703 5705 5706 5708 5710 5712 5715 5718 5721 5724 5726 5730 5733 5736 5738 5740 5741 5743 5745 5747 5749 5751 5752
5602 5600 5597 5594 5591 5588 5586 5583 5578 5575 5573 5571 5569 5567 5566 5564 5563 5562 5561 5560 5560 5560 5561 5561 5562 5563 5565 5567 5569 5571 5572 5574 5577 5581 5584 5586 5589 5593 5598 5603 5607 5611 5616 5620 5624 5627 5631 5636 5640 5644 5647 5650 5654 5658 5661 5665 5669 5673 5677 5681 5684 5688 5692 5695 5698 5700 5702 5704 5706 5708 5710 5713 5716 5719 5722 5725 5728 5731 5733 5735 5737 5739 5741 5743 5745 5746 5748 5750
5605 5602 5599 5595 5593 5591 5589 5586 5582 5579 5576 5574 5573 5571 5570 5569 5568 5567 5566 5566 5565 5565 5565 5566 5567 5568 5569 5571 5573 5574 5576 5578 5580 5583 5586 5588 5591 5595 5600 5604 5608 5612 5617 5620 5624 5627 5631 5635 5640 5644 5647 5650 5653 5656 5660 5663 5667 5672 5676 5679 5683 5686 5690 5693 5696 5698 5700 5702 5703 5705 5707 5710 5713 5717 5720 5722 5725 5727 5730 5732 5735 5738 5740 5741 5743 5744 5746 5748
5604 5603 5600 5598 5596 5594 5592 5588 5585 5582 5579 5578 5576 5575 5574 5573 5573 5572 5571 5570 5570 5570 5570 5570 5571 5573 5574 5575 5576 5578 5580 5583 5585 5587 5588 5591 5594 5598 5601 5606 5611 5615 5619 5622 5624 5628 5631 5635 5639 5643 5646 5649 5652 5655 5659 5662 5667 5670 5674 5678 5682 5685 5688 5692 5694 5696 5699 5700 5701 5702 5704 5707 5711 5715 5717 5720 5723 5725 5728 5731 5734 5736 5738 5740 5741 5743 5744 5746
5605 5603 5602 5599 5598 5596 5594 5590 5588 5585 5582 5581 5579 5578 5577 5577 5577 5576 5575 5575 5574 5574 5574 5575 5576 5577 5578 5578 5580 5582 5584 5587 5589 5591 5592 5595 5599 5602 5604 5609 5614 5618 5621 5624 5625 5628 5632 5635 5639 5643 5646 5648 5651 5655 5658 5662 5666 5669 5672 5677 5681 5684 5687 5690 5693 5696 5697 5699 5700 5701 5703 5706 5709 5712 5715 5717 5720 5723 5726 5729 5732 5735 5736 5738 5739 5741 5742 5744